Location: Freistadt
(48.5112°N, 14.5013°E)
Time: 09:41:43
(UTC+02:00)

EO-88 - Visible Passes

Search period start: 01 April 2023 00:00
Search period end: 11 April 2023 00:00
Orbit: 394 x 398 km, 97.2° (Epoch: 31 March)

Date Brightness Start Highest point End Pass type
(mag) Time Alt. Az. Time Alt. Az. Time Alt. Az.
01 Apr ? 21:39:38 12° NNE 21:39:38 12° NNE 21:40:07 10° NNE visible
01 Apr ? 23:12:09 11° NW 23:12:09 11° NW 23:12:14 10° NW visible
02 Apr ? 22:19:40 17° N 22:19:40 17° N 22:20:34 10° N visible
03 Apr ? 21:26:58 10° NE 21:26:58 10° NE 21:27:08 10° NE visible
03 Apr ? 22:59:27 14° NNW 22:59:27 14° NNW 22:59:59 10° NNW visible
04 Apr ? 22:06:31 18° NNE 22:06:31 18° NNE 22:07:33 10° N visible
05 Apr ? 22:45:48 18° NNW 22:45:48 18° NNW 22:46:43 10° NNW visible
06 Apr ? 21:52:24 17° NNE 21:52:24 17° NNE 21:53:29 10° NNE visible
06 Apr ? 23:24:51 10° NW 23:24:51 10° NW 23:24:53 10° NW visible
07 Apr ? 22:31:12 22° N 22:31:12 22° N 22:32:25 10° N visible
08 Apr ? 21:37:21 14° NE 21:37:21 14° NE 21:38:16 10° NNE visible
08 Apr ? 23:09:45 15° NW 23:09:45 15° NW 23:10:26 10° NNW visible
09 Apr ? 22:15:40 23° NNE 22:15:40 23° NNE 22:17:05 10° N visible
10 Apr ? 21:21:21 10° NE 21:21:21 10° NE 21:21:23 10° NE visible
10 Apr ? 22:53:43 20° NNW 22:53:43 20° NNW 22:54:53 10° NNW visible
